Temp
74 71 70 70 70 69 68 69 71 71 70 70 71 70 69 68 67 67 66 66 66 66
72 70 71 71 71 69 70 71 70 69 68 69 70 69 68 67 66 65 64 64 63 63
71 72 71 70 70 70 70 69 69 69 69 68 68 68 67 66 65 65 63 63 61 59
71 72 72 70 70 70 70 69 69 68 68 67 67 67 66 65 64 63 61 61 59 57
73 72 71 70 70 70 69 69 68 67 67 66 66 65 65 65 63 61 59 58 57 56
71 71 70 70 69 69 68 68 68 67 66 65 65 64 64 64 62 60 59 57 55 54
71 71 70 70 68 68 68 67 66 66 65 63 63 63 63 61 60 58 57 56 56 55
71 71 69 68 67 67 66 65 63 62 61 61 63 65 60 60 58 56 55 56 56 56
70 69 68 67 66 66 65 63 62 60 60 60 64 66 66 61 57 57 56 55 56 57
70 69 68 67 66 65 64 62 60 59 59 58 58 65 65 65 56 56 55 55 55 57
69 68 68 67 65 63 61 61 59 58 57 57 59 64 64 64 56 55 55 56 56 55
69 68 69 66 64 61 60 59 58 57 56 57 57 62 62 58 53 53 53 54 54 55
69 68 67 65 63 61 61 60 59 58 58 60 59 61 61 57 53 51 51 52 53 59
69 69 66 63 62 61 61 60 57 59 60 61 60 58 59 59 54 54 52 51 52 53
MSLP
1010.98 1011.56 1011.97 1012.21 1012.51 1012.80 1013.09 1013.21 1013.32 1013.50 1013.48 1013.44 1013.42 1013.71 1013.94 1014.16 1014.39 1014.49 1014.65 1014.79 1014.87 1014.98
1010.82 1011.33 1011.74 1011.99 1012.34 1012.67 1012.94 1013.20 1013.54 1013.70 1013.75 1013.72 1013.82 1014.00 1014.26 1014.51 1014.81 1014.87 1015.08 1015.30 1015.32 1015.56
1010.62 1011.25 1011.66 1011.93 1012.37 1012.64 1013.02 1013.34 1013.67 1013.84 1013.98 1014.00 1014.17 1014.39 1014.53 1014.80 1015.05 1015.08 1015.44 1015.68 1015.79 1015.95
1010.56 1011.01 1011.48 1011.89 1012.31 1012.62 1012.95 1013.43 1013.72 1013.94 1014.05 1014.13 1014.35 1014.61 1014.79 1015.09 1015.38 1015.71 1015.98 1016.16 1016.25 1016.49
1010.12 1010.90 1011.46 1011.83 1012.24 1012.60 1013.10 1013.51 1013.70 1013.98 1014.27 1014.55 1014.79 1014.92 1014.95 1015.25 1015.64 1015.98 1016.35 1016.59 1016.71 1016.72
1010.07 1010.70 1011.33 1011.81 1012.26 1012.73 1013.24 1013.76 1014.12 1014.45 1014.77 1015.09 1015.35 1015.55 1015.61 1015.65 1015.87 1016.27 1016.50 1016.75 1016.91 1017.02
1009.75 1010.42 1011.14 1011.77 1012.36 1012.85 1013.33 1013.88 1014.35 1014.65 1014.99 1015.32 1015.54 1015.69 1015.94 1016.21 1016.49 1016.68 1016.64 1016.72 1016.81 1016.88
1009.62 1010.43 1011.19 1012.01 1012.67 1013.14 1013.52 1013.97 1014.34 1014.77 1015.19 1015.44 1015.64 1015.83 1016.11 1016.50 1016.74 1017.02 1017.23 1017.09 1017.07 1016.99
1009.73 1010.49 1011.33 1012.07 1012.61 1013.04 1013.54 1014.01 1014.46 1014.88 1015.26 1015.60 1015.70 1015.82 1015.95 1016.19 1016.68 1016.97 1017.26 1017.42 1017.21 1017.08
1009.68 1010.30 1010.94 1011.80 1012.47 1013.04 1013.63 1014.21 1014.77 1015.22 1015.50 1015.85 1016.00 1016.10 1016.15 1016.41 1016.61 1016.81 1017.00 1017.16 1017.21 1017.27
1009.47 1010.28 1011.02 1011.81 1012.35 1012.99 1013.62 1014.23 1014.91 1015.25 1015.43 1015.62 1015.95 1016.32 1016.59 1016.63 1016.74 1016.81 1016.73 1016.68 1016.77 1016.77
1009.52 1010.29 1011.16 1011.92 1012.30 1012.87 1013.70 1014.24 1014.72 1015.15 1015.45 1015.64 1015.85 1016.16 1016.64 1016.94 1017.01 1017.15 1017.17 1016.93 1016.78 1016.74
1009.71 1010.50 1011.31 1011.89 1012.51 1012.94 1013.41 1014.25 1014.79 1015.36 1015.63 1015.94 1015.80 1016.01 1016.50 1016.80 1017.01 1017.24 1017.09 1016.77 1016.66 1016.62
1009.80 1010.76 1011.73 1012.61 1013.04 1013.25 1013.56 1014.26 1014.65 1015.09 1015.66 1015.97 1016.05 1016.18 1016.30 1016.55 1016.75 1016.91 1017.10 1017.16 1016.98 1016.63
Wind_Speed
8 5 5 5 4 4 3 3 3 4 4 4 5 5 5 4 4 5 5 7 5 4
7 6 6 5 4 4 4 4 5 5 5 4 5 6 6 4 5 5 5 5 6 4
8 7 6 6 6 6 5 5 6 6 5 6 6 6 6 5 4 6 4 4 6 5
8 7 7 6 6 6 6 6 6 6 6 6 6 6 6 6 6 7 6 5 6 5
9 9 8 7 6 6 7 6 7 6 6 5 5 5 6 6 5 6 6 5 5 5
10 9 8 8 7 6 7 6 5 6 6 5 4 3 2 5 6 6 6 5 5 4
11 10 9 8 7 7 7 7 6 5 6 5 3 5 4 5 6 5 5 5 5 4
10 9 8 8 6 7 7 7 7 7 6 6 4 3 6 5 5 6 4 3 3 3
10 10 9 8 8 8 7 7 7 7 7 6 3 9 9 8 5 4 4 4 4 3
11 12 11 10 9 8 8 7 7 7 6 6 4 7 7 8 4 4 3 4 4 4
13 13 12 11 10 7 6 8 6 6 6 6 4 7 7 9 4 4 3 1 5 6
13 13 13 10 9 7 7 5 5 5 6 6 5 8 9 6 3 1 2 3 4 5
11 12 10 8 8 4 5 5 5 5 4 4 6 7 9 6 2 1 2 4 4 7
10 9 7 6 3 4 5 6 5 6 4 4 4 4 7 8 4 3 1 2 4 4
Wind_Direction
157 163 177 165 156 157 146 139 119 101 84 72 79 73 70 66 67 66 59 60 59 61
147 147 167 151 139 151 139 127 123 114 96 68 93 86 91 87 79 74 63 58 58 55
147 156 150 142 143 143 135 118 132 119 108 91 95 99 98 97 92 90 74 70 75 68
149 151 141 143 150 145 135 148 137 125 112 108 114 121 106 101 112 93 86 72 83 72
142 141 140 147 149 144 134 135 136 131 117 113 114 124 125 124 110 111 106 100 87 90
145 147 151 153 149 135 127 131 121 113 110 108 96 86 99 121 127 120 111 126 116 137
159 156 156 149 136 135 133 126 120 113 112 110 101 101 96 110 103 101 116 135 132 142
150 147 135 127 128 126 122 124 122 118 103 99 100 94 104 118 125 128 133 163 177 161
145 134 130 133 139 134 129 122 119 117 124 117 102 123 136 149 155 145 151 206 238 224
144 145 145 140 142 136 135 128 125 129 128 124 134 134 123 133 126 151 211 221 231 260
152 150 142 149 147 137 133 140 146 147 145 146 160 139 132 126 123 96 59 152 230 224
149 144 149 154 149 131 132 136 151 156 158 155 153 148 139 122 119 92 2 354 353 311
137 138 155 154 141 138 129 137 139 158 170 189 167 171 149 138 133 112 326 339 343 340
141 134 106 101 107 126 128 134 143 151 176 210 194 219 191 168 163 181 252 328 308 302